Regional Weather Roundup
Issued by NWS Northern Indiana

Home | Current Version | Previous Version | Graphics & Text | Print | Product List | Glossary On
Versions: 1 2 3 4 5 6 7 8 9 10 11 12 13 14 15 16 17 18 19 20 21 22 23 24 25 26 27 28 29 30 31 32 33 34 35 36 37 38 39 40 41 42 43 44 45 46 47 48 49 50
000
ASUS43 KIWX 031510
RWRIWX

KIWX WEATHER ROUNDUP
NATIONAL WEATHER SERVICE NORTHERN INDIANA
1100 AM EDT THU SEP 03 2015

NOTE: "FAIR" INDICATES FEW OR NO CLOUDS BELOW 12,000 FEET WITH NO
SIGNIFICANT WEATHER AND/OR OBSTRUCTIONS TO VISIBILITY.

* THESE STATIONS ARE NOT UNDER NWS QUALITY CONTROL. THEY ALSO MAY NOT
  REPORT WEATHER SUCH AS PRECIPITATION OR FOG.

INZ001>027-031600-
NORTHERN INDIANA

CITY           SKY/WX    TMP DP  RH WIND       PRES   REMARKS
GARY*          SUNNY     82  66  57 SW9       29.96F
VALPARAISO     SUNNY     82  70  66 SW10      29.98F
MICHIGAN CITY* SUNNY     82  68  61 SW6       29.97S
LAPORTE*       SUNNY     82  71  68 W9        29.99S
KNOX*          SUNNY     81  68  65 SW8       29.98S
SOUTH BEND     SUNNY     80  69  69 SW13      29.98S
ELKHART*       SUNNY     82  70  65 SW7       29.99R
GOSHEN         SUNNY     82  69  64 SW10      29.99S
MONTICELLO*    SUNNY     82  72  72 SW7       30.00S
LOGANSPORT*    SUNNY     82  63  51 W10       30.02S
ROCHESTER*     SUNNY     86  70  58 W8        30.00F
WARSAW*        SUNNY     81  70  69 SW6       30.00S
ANGOLA*        SUNNY     86  72  62 W5        30.00R
FORT WAYNE     MOSUNNY   83  70  64 W7        30.02R
HUNTINGTON*    SUNNY     82  65  56 SW6       30.01S
PERU/GRISSOM   SUNNY     83  71  65 SW10      30.00F
MARION*        SUNNY     81  61  49 W7        30.03S

$$
INZ028>050-031600-
CENTRAL INDIANA

CITY           SKY/WX    TMP DP  RH WIND       PRES   REMARKS
LAFAYETTE      SUNNY     83  69  62 SW7       30.00S
KOKOMO*        SUNNY     84  70  61 W10       30.02S
MUNCIE*        SUNNY     81  69  67 W8        30.03S
INDIANAPOLIS   SUNNY     83  68  60 SW10      30.03F

$$
MIZ043>046-050>051-056>058-064>065-071>073-077>080-031600-
SOUTHWEST LOWER MICHIGAN

CITY           SKY/WX    TMP DP  RH WIND       PRES   REMARKS
BATTLE CREEK   MOSUNNY   82  70  66 SW8       29.99R
BENTON HARBOR  CLOUDY    79  68  69 SW9       29.97R
COLDWATER*     MOSUNNY   82  70  66 SW6       29.99S
HILLSDALE*     SUNNY     82  72  70 W6        30.01R
HOLLAND        PTSUNNY   76  69  79 W7        29.96R
GRAND RAPIDS   TSTM      74  71  91 N9        29.98R FOG
KALAMAZOO      MOSUNNY   83  70  64 W9        29.98S
STURGIS*       SUNNY     81  72  74 W5        29.99R
THREE RIVERS*  FAIR      82  70  66 SW7       29.99R

$$
OHZ001>008-015>018-024>025-031600-
NORTHWEST OHIO

CITY           SKY/WX    TMP DP  RH WIND       PRES   REMARKS
WAUSEON*       FAIR      81  72  74 SW9       29.99S
DEFIANCE       MOSUNNY   81  69  67 S6        30.00S
FINDLAY        MOSUNNY   82  70  66 VRB6      29.99F
TOLEDO EXPRESS MOSUNNY   83  65  54 SW7       29.97F
TOLEDO METCALF MOSUNNY   79  68  69 SW3       29.98F
LIMA           SUNNY     81  70  69 W7        30.02S

$$
AND FOR LAKE MICHIGAN COASTAL AND OPEN LAKE BUOY OBSERVATIONS

STATION/POSITION TEMP    WIND        PRES    VSBY  WAVE
                 AIR SEA DIR/SP/G                  HT/PER
                 (F)     (DEG/KT/KT) (MB)    (MI)  (FT/S)
CALUMET HARBOR    79     220/  4/ 10   N/A
MICHIGAN CITY     78     190/  9/ 10   N/A
BURNS HARBOR      78     210/ 10/ 13 1014.9F
SAINT JOSEPH      77     190/ 11/ 14 1014.9F
SOUTH LAKE BUOY   73 71  230/ 10/ 12 1013.0R         1/ 3
4 MI NW BRIDGMAN  75 72  270/  8/  8   N/A           1/ 3
MICHIGAN CITY     76 73  240/  4/  6   N/A           1/ 2

$$
&&



USA.gov is the U.S. government's official web portal to all federal, state and local government web resources and services.